Time,TemperatureF,DewpointF,PressureIn,WindDirection,WindDirectionDegrees,WindSpeedMPH,WindSpeedGustMPH,Humidity,HourlyPrecipIn,Conditions,Clouds,dailyrainin,SoftwareType,DateUTC
2013-11-10 00:09:00,40.5,25.6,30.31,SSW,203,0.0,0.0,55,0.00,,,0.00,Wunderground v.1.15,2013-11-10 07:09:00,
2013-11-10 00:18:00,40.3,25.4,30.31,SSW,203,0.0,0.0,55,0.00,,,0.00,Wunderground v.1.15,2013-11-10 07:18:00,
2013-11-10 00:24:00,40.4,25.5,30.31,SSW,203,0.0,0.0,55,0.00,,,0.00,Wunderground v.1.15,2013-11-10 07:24:00,
2013-11-10 00:34:00,40.0,25.6,30.31,SSW,203,0.0,0.0,56,0.00,,,0.00,Wunderground v.1.15,2013-11-10 07:34:00,
2013-11-10 00:44:00,39.7,25.7,30.31,SSW,203,0.0,0.0,57,0.00,,,0.00,Wunderground v.1.15,2013-11-10 07:44:00,
2013-11-10 00:54:00,39.0,25.9,30.32,SSW,203,0.0,0.0,59,0.00,,,0.00,Wunderground v.1.15,2013-11-10 07:54:00,
2013-11-10 00:59:00,38.8,25.7,30.32,SSW,203,0.0,0.0,59,0.00,,,0.00,Wunderground v.1.15,2013-11-10 07:59:00,
2013-11-10 01:08:00,38.3,25.6,30.32,SSW,203,0.0,0.0,60,0.00,,,0.00,Wunderground v.1.15,2013-11-10 08:08:00,
2013-11-10 01:14:00,38.1,25.4,30.32,SSW,203,0.0,0.0,60,0.00,,,0.00,Wunderground v.1.15,2013-11-10 08:14:00,
2013-11-10 01:24:00,37.9,25.2,30.32,SE,142,0.0,0.0,60,0.00,,,0.00,Wunderground v.1.15,2013-11-10 08:24:00,
2013-11-10 01:34:00,37.8,25.1,30.32,SE,142,0.0,0.0,60,0.00,,,0.00,Wunderground v.1.15,2013-11-10 08:34:00,
2013-11-10 01:43:00,37.6,25.4,30.32,SE,142,0.0,0.0,61,0.00,,,0.00,Wunderground v.1.15,2013-11-10 08:43:00,
2013-11-10 01:54:00,37.6,24.6,30.32,SE,143,0.0,0.0,59,0.00,,,0.00,Wunderground v.1.15,2013-11-10 08:54:00,
2013-11-10 01:59:00,37.7,25.1,30.32,SE,142,0.0,0.0,60,0.00,,,0.00,Wunderground v.1.15,2013-11-10 08:59:00,
2013-11-10 02:09:00,37.6,26.1,30.32,SE,141,0.0,0.0,63,0.00,,,0.00,Wunderground v.1.15,2013-11-10 09:09:00,
2013-11-10 02:19:00,37.2,25.0,30.32,SE,141,0.0,0.0,61,0.00,,,0.00,Wunderground v.1.15,2013-11-10 09:19:00,
2013-11-10 02:29:00,36.9,25.1,30.32,SE,141,0.0,0.0,62,0.00,,,0.00,Wunderground v.1.15,2013-11-10 09:29:00,
2013-11-10 02:39:00,36.7,24.5,30.32,NE,39,0.0,0.0,61,0.00,,,0.00,Wunderground v.1.15,2013-11-10 09:39:00,
2013-11-10 02:49:00,38.4,24.5,30.32,NNE,28,0.0,0.0,57,0.00,,,0.00,Wunderground v.1.15,2013-11-10 09:49:00,
2013-11-10 02:59:00,39.2,24.4,30.32,NNE,29,0.0,0.0,55,0.00,,,0.00,Wunderground v.1.15,2013-11-10 09:59:00,
2013-11-10 03:08:00,38.4,24.1,30.32,NNE,28,0.0,0.0,56,0.00,,,0.00,Wunderground v.1.15,2013-11-10 10:08:00,
2013-11-10 03:14:00,38.3,24.8,30.32,NNE,28,0.0,0.0,58,0.00,,,0.00,Wunderground v.1.15,2013-11-10 10:14:00,
2013-11-10 03:24:00,37.5,24.5,30.32,NNE,32,0.0,0.0,59,0.00,,,0.00,Wunderground v.1.15,2013-11-10 10:24:00,
2013-11-10 03:34:00,36.7,24.5,30.32,NNE,32,0.0,0.0,61,0.00,,,0.00,Wunderground v.1.15,2013-11-10 10:34:00,
2013-11-10 03:43:00,36.4,24.2,30.32,NNE,32,0.0,0.0,61,0.00,,,0.00,Wunderground v.1.15,2013-11-10 10:43:00,
2013-11-10 03:54:00,36.7,24.5,30.32,NNE,32,0.0,0.0,61,0.00,,,0.00,Wunderground v.1.15,2013-11-10 10:54:00,
2013-11-10 03:59:00,37.3,24.7,30.32,NNE,32,0.0,0.0,60,0.00,,,0.00,Wunderground v.1.15,2013-11-10 10:59:00,
2013-11-10 04:09:00,37.7,24.6,30.33,NNE,29,0.0,0.0,59,0.00,,,0.00,Wunderground v.1.15,2013-11-10 11:09:00,
2013-11-10 04:19:00,37.1,24.5,30.33,NNE,29,0.0,0.0,60,0.00,,,0.00,Wunderground v.1.15,2013-11-10 11:19:00,
2013-11-10 04:29:00,36.1,24.7,30.33,SE,133,0.0,0.0,63,0.00,,,0.00,Wunderground v.1.15,2013-11-10 11:29:00,
2013-11-10 04:39:00,35.6,24.6,30.34,SE,132,0.0,0.0,64,0.00,,,0.00,Wunderground v.1.15,2013-11-10 11:39:00,
2013-11-10 04:49:00,35.3,24.7,30.34,North,6,0.0,1.0,65,0.00,,,0.00,Wunderground v.1.15,2013-11-10 11:49:00,
2013-11-10 04:59:00,36.2,24.8,30.34,SE,124,0.0,0.0,63,0.00,,,0.00,Wunderground v.1.15,2013-11-10 11:59:00,
2013-11-10 05:08:00,35.2,25.0,30.34,SE,130,0.0,0.0,66,0.00,,,0.00,Wunderground v.1.15,2013-11-10 12:08:00,
2013-11-10 05:14:00,35.1,24.9,30.34,SE,130,0.0,0.0,66,0.00,,,0.00,Wunderground v.1.15,2013-11-10 12:14:00,
2013-11-10 05:24:00,34.1,24.6,30.35,SE,130,0.0,0.0,68,0.00,,,0.00,Wunderground v.1.15,2013-11-10 12:24:00,
2013-11-10 05:34:00,33.7,25.0,30.35,South,188,0.0,0.0,70,0.00,,,0.00,Wunderground v.1.15,2013-11-10 12:34:00,
2013-11-10 05:43:00,33.4,25.0,30.35,South,188,0.0,0.0,71,0.00,,,0.00,Wunderground v.1.15,2013-11-10 12:43:00,
2013-11-10 05:54:00,33.3,24.9,30.35,South,188,0.0,0.0,71,0.00,,,0.00,Wunderground v.1.15,2013-11-10 12:54:00,
2013-11-10 05:59:00,33.1,25.1,30.35,South,187,0.0,0.0,72,0.00,,,0.00,Wunderground v.1.15,2013-11-10 12:59:00,
2013-11-10 06:09:00,32.7,25.0,30.36,South,187,0.0,0.0,73,0.00,,,0.00,Wunderground v.1.15,2013-11-10 13:09:00,
2013-11-10 06:14:00,33.2,25.1,30.36,ESE,120,0.0,0.0,72,0.00,,,0.00,Wunderground v.1.15,2013-11-10 13:14:00,
2013-11-10 06:24:00,33.3,24.9,30.36,ESE,120,0.0,0.0,71,0.00,,,0.00,Wunderground v.1.15,2013-11-10 13:24:00,
2013-11-10 06:29:00,33.0,24.6,30.36,ESE,120,0.0,0.0,71,0.00,,,0.00,Wunderground v.1.15,2013-11-10 13:29:00,
2013-11-10 06:34:00,32.8,24.8,30.36,ESE,120,0.0,0.0,72,0.00,,,0.00,Wunderground v.1.15,2013-11-10 13:34:00,
2013-11-10 06:44:00,32.3,24.9,30.36,ESE,120,0.0,0.0,74,0.00,,,0.00,Wunderground v.1.15,2013-11-10 13:44:00,
2013-11-10 06:54:00,32.2,25.2,30.36,ESE,120,0.0,0.0,75,0.00,,,0.00,Wunderground v.1.15,2013-11-10 13:54:00,
2013-11-10 06:59:00,32.2,25.2,30.36,ESE,120,0.0,0.0,75,0.00,,,0.00,Wunderground v.1.15,2013-11-10 13:59:00,
2013-11-10 07:08:00,32.5,25.5,30.37,ESE,120,0.0,0.0,75,0.00,,,0.00,Wunderground v.1.15,2013-11-10 14:08:00,
2013-11-10 07:14:00,33.6,25.9,30.37,SE,125,0.0,0.0,73,0.00,,,0.00,Wunderground v.1.15,2013-11-10 14:14:00,
2013-11-10 07:24:00,35.9,26.7,30.38,SE,145,1.0,1.0,69,0.00,,,0.00,Wunderground v.1.15,2013-11-10 14:24:00,
2013-11-10 07:34:00,37.2,26.5,30.39,SSW,201,0.0,0.0,65,0.00,,,0.00,Wunderground v.1.15,2013-11-10 14:34:00,
2013-11-10 07:43:00,38.5,27.0,30.39,SSW,201,0.0,0.0,63,0.00,,,0.00,Wunderground v.1.15,2013-11-10 14:43:00,
2013-11-10 07:54:00,39.7,27.3,30.39,SSW,201,0.0,0.0,61,0.00,,,0.00,Wunderground v.1.15,2013-11-10 14:54:00,
2013-11-10 07:59:00,40.8,28.0,30.40,SSW,201,0.0,0.0,60,0.00,,,0.00,Wunderground v.1.15,2013-11-10 14:59:00,
2013-11-10 08:09:00,43.4,27.8,30.40,SSW,200,0.0,0.0,54,0.00,,,0.00,Wunderground v.1.15,2013-11-10 15:09:00,
2013-11-10 08:19:00,46.7,28.5,30.40,SSW,200,0.0,0.0,49,0.00,,,0.00,Wunderground v.1.15,2013-11-10 15:19:00,
2013-11-10 08:29:00,47.1,26.8,30.40,SSE,156,1.0,1.0,45,0.00,,,0.00,Wunderground v.1.15,2013-11-10 15:29:00,
2013-11-10 08:39:00,48.5,27.6,30.40,SE,136,0.0,0.0,44,0.00,,,0.00,Wunderground v.1.15,2013-11-10 15:39:00,
2013-11-10 08:49:00,48.9,26.8,30.40,SE,141,1.0,1.0,42,0.00,,,0.00,Wunderground v.1.15,2013-11-10 15:49:00,
2013-11-10 08:59:00,49.6,27.4,30.40,SE,141,1.0,1.0,42,0.00,,,0.00,Wunderground v.1.15,2013-11-10 15:59:00,
2013-11-10 09:08:00,50.2,26.2,30.40,ESE,113,1.0,3.0,39,0.00,,,0.00,Wunderground v.1.15,2013-11-10 16:08:00,
2013-11-10 09:14:00,50.5,25.8,30.40,WSW,249,1.0,3.0,38,0.00,,,0.00,Wunderground v.1.15,2013-11-10 16:14:00,
2013-11-10 09:24:00,50.5,26.4,30.40,SSW,193,1.0,1.0,39,0.00,,,0.00,Wunderground v.1.15,2013-11-10 16:24:00,
2013-11-10 09:34:00,51.8,27.0,30.39,SW,231,0.0,1.0,38,0.00,,,0.00,Wunderground v.1.15,2013-11-10 16:34:00,
2013-11-10 09:43:00,52.4,26.2,30.39,WSW,250,1.0,1.0,36,0.00,,,0.00,Wunderground v.1.15,2013-11-10 16:43:00,
2013-11-10 09:54:00,53.5,26.5,30.39,NNW,340,1.0,2.0,35,0.00,,,0.00,Wunderground v.1.15,2013-11-10 16:54:00,
2013-11-10 09:59:00,53.4,26.4,30.39,WNW,283,1.0,1.0,35,0.00,,,0.00,Wunderground v.1.15,2013-11-10 16:59:00,
2013-11-10 10:09:00,53.5,25.8,30.39,WSW,243,1.0,2.0,34,0.00,,,0.00,Wunderground v.1.15,2013-11-10 17:09:00,
2013-11-10 10:19:00,54.9,27.0,30.38,WSW,243,0.0,0.0,34,0.00,,,0.00,Wunderground v.1.15,2013-11-10 17:19:00,
2013-11-10 10:28:00,55.9,26.4,30.38,SSE,162,1.0,1.0,32,0.00,,,0.00,Wunderground v.1.15,2013-11-10 17:28:00,
2013-11-10 10:34:00,56.8,27.2,30.38,NW,307,1.0,1.0,32,0.00,,,0.00,Wunderground v.1.15,2013-11-10 17:34:00,
2013-11-10 10:44:00,56.3,26.0,30.37,WSW,248,1.0,1.0,31,0.00,,,0.00,Wunderground v.1.15,2013-11-10 17:44:00,
2013-11-10 10:54:00,57.5,26.3,30.37,SSE,158,1.0,2.0,30,0.00,,,0.00,Wunderground v.1.15,2013-11-10 17:54:00,
2013-11-10 10:59:00,58.1,25.1,30.37,WSW,237,1.0,2.0,28,0.00,,,0.00,Wunderground v.1.15,2013-11-10 17:59:00,
2013-11-10 11:08:00,58.4,26.2,30.36,South,191,1.0,3.0,29,0.00,,,0.00,Wunderground v.1.15,2013-11-10 18:08:00,
2013-11-10 11:14:00,59.0,25.9,30.36,WSW,243,1.0,3.0,28,0.00,,,0.00,Wunderground v.1.15,2013-11-10 18:14:00,
2013-11-10 11:24:00,59.8,26.6,30.35,SE,129,1.0,2.0,28,0.00,,,0.00,Wunderground v.1.15,2013-11-10 18:24:00,
2013-11-10 11:34:00,60.4,26.2,30.35,WSW,242,1.0,1.0,27,0.00,,,0.00,Wunderground v.1.15,2013-11-10 18:34:00,
2013-11-10 11:43:00,61.8,26.5,30.34,SW,236,1.0,1.0,26,0.00,,,0.00,Wunderground v.1.15,2013-11-10 18:43:00,
2013-11-10 11:54:00,61.3,26.1,30.33,WSW,244,1.0,1.0,26,0.00,,,0.00,Wunderground v.1.15,2013-11-10 18:54:00,
2013-11-10 11:59:00,61.7,25.5,30.33,SSW,208,1.0,1.0,25,0.00,,,0.00,Wunderground v.1.15,2013-11-10 18:59:00,
2013-11-10 12:09:00,63.0,25.6,30.33,WNW,301,1.0,2.0,24,0.00,,,0.00,Wunderground v.1.15,2013-11-10 19:09:00,
2013-11-10 12:19:00,62.6,25.3,30.32,WSW,246,1.0,1.0,24,0.00,,,0.00,Wunderground v.1.15,2013-11-10 19:19:00,
2013-11-10 12:28:00,63.1,25.7,30.31,NNE,12,1.0,1.0,24,0.00,,,0.00,Wunderground v.1.15,2013-11-10 19:28:00,
2013-11-10 12:34:00,63.7,26.2,30.31,WNW,288,1.0,1.0,24,0.00,,,0.00,Wunderground v.1.15,2013-11-10 19:34:00,
2013-11-10 12:44:00,63.9,25.3,30.30,NW,317,2.0,2.0,23,0.00,,,0.00,Wunderground v.1.15,2013-11-10 19:44:00,
2013-11-10 12:54:00,63.8,24.2,30.30,North,349,2.0,2.0,22,0.00,,,0.00,Wunderground v.1.15,2013-11-10 19:54:00,
2013-11-10 12:59:00,63.6,24.0,30.30,WSW,256,2.0,2.0,22,0.00,,,0.00,Wunderground v.1.15,2013-11-10 19:59:00,
2013-11-10 13:08:00,65.2,24.2,30.29,NNW,332,1.0,1.0,21,0.00,,,0.00,Wunderground v.1.15,2013-11-10 20:08:00,
2013-11-10 13:14:00,64.7,23.8,30.29,NW,320,1.0,1.0,21,0.00,,,0.00,Wunderground v.1.15,2013-11-10 20:14:00,
2013-11-10 13:24:00,65.6,23.4,30.29,NW,311,2.0,2.0,20,0.00,,,0.00,Wunderground v.1.15,2013-11-10 20:24:00,
2013-11-10 13:34:00,66.2,25.1,30.29,South,181,2.0,3.0,21,0.00,,,0.00,Wunderground v.1.15,2013-11-10 20:34:00,
2013-11-10 13:43:00,66.0,23.7,30.29,WSW,246,2.0,3.0,20,0.00,,,0.00,Wunderground v.1.15,2013-11-10 20:43:00,
2013-11-10 13:54:00,66.2,25.1,30.29,ESE,121,2.0,2.0,21,0.00,,,0.00,Wunderground v.1.15,2013-11-10 20:54:00,
2013-11-10 13:59:00,66.1,23.8,30.28,South,189,2.0,3.0,20,0.00,,,0.00,Wunderground v.1.15,2013-11-10 20:59:00,
2013-11-10 14:09:00,66.0,22.5,30.28,SW,217,3.0,3.0,19,0.00,,,0.00,Wunderground v.1.15,2013-11-10 21:09:00,
2013-11-10 14:19:00,66.5,21.6,30.28,SSE,153,3.0,4.0,18,0.00,,,0.00,Wunderground v.1.15,2013-11-10 21:19:00,
2013-11-10 14:28:00,66.8,24.4,30.28,SSE,150,3.0,3.0,20,0.00,,,0.00,Wunderground v.1.15,2013-11-10 21:28:00,
2013-11-10 14:39:00,67.6,23.8,30.28,SSE,149,2.0,3.0,19,0.00,,,0.00,Wunderground v.1.15,2013-11-10 21:39:00,
2013-11-10 14:49:00,67.6,23.8,30.27,WNW,284,2.0,2.0,19,0.00,,,0.00,Wunderground v.1.15,2013-11-10 21:49:00,
2013-11-10 14:59:00,68.4,24.5,30.27,SW,228,2.0,3.0,19,0.00,,,0.00,Wunderground v.1.15,2013-11-10 21:59:00,
2013-11-10 15:08:00,68.0,24.2,30.26,SW,217,3.0,3.0,19,0.00,,,0.00,Wunderground v.1.15,2013-11-10 22:08:00,
2013-11-10 15:14:00,68.0,24.2,30.26,SE,139,3.0,4.0,19,0.00,,,0.00,Wunderground v.1.15,2013-11-10 22:14:00,
2013-11-10 15:24:00,67.5,25.0,30.27,SSE,156,3.0,3.0,20,0.00,,,0.00,Wunderground v.1.15,2013-11-10 22:24:00,
2013-11-10 15:34:00,67.3,24.8,30.27,SSE,156,3.0,3.0,20,0.00,,,0.00,Wunderground v.1.15,2013-11-10 22:34:00,
2013-11-10 15:43:00,66.7,25.5,30.26,South,169,2.0,3.0,21,0.00,,,0.00,Wunderground v.1.15,2013-11-10 22:43:00,
2013-11-10 15:54:00,66.1,23.8,30.26,SSE,167,1.0,2.0,20,0.00,,,0.00,Wunderground v.1.15,2013-11-10 22:54:00,
2013-11-10 15:59:00,65.8,24.7,30.26,ESE,121,1.0,1.0,21,0.00,,,0.00,Wunderground v.1.15,2013-11-10 22:59:00,
2013-11-10 16:09:00,65.1,24.2,30.26,SE,141,2.0,2.0,21,0.00,,,0.00,Wunderground v.1.15,2013-11-10 23:09:00,
2013-11-10 16:19:00,64.8,25.0,30.26,SE,136,2.0,2.0,22,0.00,,,0.00,Wunderground v.1.15,2013-11-10 23:19:00,
2013-11-10 16:28:00,64.3,24.6,30.26,SSE,162,1.0,2.0,22,0.00,,,0.00,Wunderground v.1.15,2013-11-10 23:28:00,
2013-11-10 16:39:00,63.7,25.2,30.26,SE,141,1.0,1.0,23,0.00,,,0.00,Wunderground v.1.15,2013-11-10 23:39:00,
2013-11-10 16:49:00,63.3,24.8,30.26,SE,141,1.0,1.0,23,0.00,,,0.00,Wunderground v.1.15,2013-11-10 23:49:00,
2013-11-10 16:59:00,62.6,25.3,30.26,SE,141,0.0,0.0,24,0.00,,,0.00,Wunderground v.1.15,2013-11-10 23:59:00,
2013-11-10 17:08:00,61.7,25.5,30.26,SE,135,0.0,1.0,25,0.00,,,0.00,Wunderground v.1.15,2013-11-11 00:08:00,
2013-11-10 17:14:00,61.3,25.1,30.26,SE,134,0.0,1.0,25,0.00,,,0.00,Wunderground v.1.15,2013-11-11 00:14:00,
2013-11-10 17:24:00,60.4,28.0,30.26,SE,132,0.0,0.0,29,0.00,,,0.00,Wunderground v.1.15,2013-11-11 00:24:00,
2013-11-10 17:34:00,58.7,28.9,30.26,SE,133,0.0,0.0,32,0.00,,,0.00,Wunderground v.1.15,2013-11-11 00:34:00,
2013-11-10 17:43:00,57.1,28.2,30.27,SE,132,0.0,0.0,33,0.00,,,0.00,Wunderground v.1.15,2013-11-11 00:43:00,
2013-11-10 17:54:00,55.8,29.2,30.27,SE,132,0.0,0.0,36,0.00,,,0.00,Wunderground v.1.15,2013-11-11 00:54:00,
2013-11-10 17:59:00,55.5,28.3,30.28,SE,132,0.0,0.0,35,0.00,,,0.00,Wunderground v.1.15,2013-11-11 00:59:00,
2013-11-10 18:09:00,55.7,27.7,30.28,SE,133,0.0,0.0,34,0.00,,,0.00,Wunderground v.1.15,2013-11-11 01:09:00,
2013-11-10 18:19:00,54.7,29.6,30.29,SE,132,0.0,0.0,38,0.00,,,0.00,Wunderground v.1.15,2013-11-11 01:19:00,
2013-11-10 18:28:00,53.5,29.1,30.29,SE,132,0.0,0.0,39,0.00,,,0.00,Wunderground v.1.15,2013-11-11 01:28:00,
2013-11-10 18:39:00,52.7,29.6,30.29,SE,132,0.0,0.0,41,0.00,,,0.00,Wunderground v.1.15,2013-11-11 01:39:00,
2013-11-10 18:44:00,52.6,29.5,30.29,ESE,120,0.0,0.0,41,0.00,,,0.00,Wunderground v.1.15,2013-11-11 01:44:00,
2013-11-10 18:54:00,52.1,29.7,30.30,ESE,120,0.0,0.0,42,0.00,,,0.00,Wunderground v.1.15,2013-11-11 01:54:00,
2013-11-10 18:59:00,52.0,29.0,30.30,ESE,120,0.0,0.0,41,0.00,,,0.00,Wunderground v.1.15,2013-11-11 01:59:00,
2013-11-10 19:09:00,51.8,29.4,30.30,ESE,120,0.0,0.0,42,0.00,,,0.00,Wunderground v.1.15,2013-11-11 02:09:00,
2013-11-10 19:18:00,51.3,28.4,30.30,ESE,119,0.0,0.0,41,0.00,,,0.00,Wunderground v.1.15,2013-11-11 02:18:00,
2013-11-10 19:24:00,51.2,28.3,30.30,ESE,118,0.0,0.0,41,0.00,,,0.00,Wunderground v.1.15,2013-11-11 02:24:00,
2013-11-10 19:34:00,51.1,25.7,30.30,ESE,118,0.0,0.0,37,0.00,,,0.00,Wunderground v.1.15,2013-11-11 02:34:00,
2013-11-10 19:44:00,51.9,25.1,30.30,SE,124,0.0,0.0,35,0.00,,,0.00,Wunderground v.1.15,2013-11-11 02:44:00,
2013-11-10 19:53:00,51.8,25.7,30.30,SE,124,0.0,0.0,36,0.00,,,0.00,Wunderground v.1.15,2013-11-11 02:53:00,
2013-11-10 19:59:00,51.4,26.0,30.30,ESE,118,0.0,0.0,37,0.00,,,0.00,Wunderground v.1.15,2013-11-11 02:59:00,
2013-11-10 20:09:00,51.1,25.7,30.30,ESE,121,0.0,0.0,37,0.00,,,0.00,Wunderground v.1.15,2013-11-11 03:09:00,
2013-11-10 20:19:00,51.0,25.6,30.30,ESE,113,0.0,0.0,37,0.00,,,0.00,Wunderground v.1.15,2013-11-11 03:19:00,
2013-11-10 20:24:00,51.0,26.3,30.30,ESE,113,0.0,0.0,38,0.00,,,0.00,Wunderground v.1.15,2013-11-11 03:24:00,
2013-11-10 20:34:00,50.9,26.2,30.31,ESE,113,0.0,0.0,38,0.00,,,0.00,Wunderground v.1.15,2013-11-11 03:34:00,
2013-11-10 20:38:00,50.9,26.2,30.31,ESE,113,0.0,0.0,38,0.00,,,0.00,Wunderground v.1.15,2013-11-11 03:38:00,
2013-11-10 20:44:00,50.7,26.0,30.31,ESE,113,0.0,0.0,38,0.00,,,0.00,Wunderground v.1.15,2013-11-11 03:44:00,
2013-11-10 20:54:00,50.0,26.0,30.31,ESE,113,0.0,0.0,39,0.00,,,0.00,Wunderground v.1.15,2013-11-11 03:54:00,
2013-11-10 20:59:00,49.6,26.2,30.31,ESE,113,0.0,0.0,40,0.00,,,0.00,Wunderground v.1.15,2013-11-11 03:59:00,
2013-11-10 21:09:00,49.3,26.0,30.32,ESE,119,0.0,0.0,40,0.00,,,0.00,Wunderground v.1.15,2013-11-11 04:09:00,
2013-11-10 21:18:00,48.5,26.4,30.32,ESE,118,0.0,0.0,42,0.00,,,0.00,Wunderground v.1.15,2013-11-11 04:18:00,
2013-11-10 21:24:00,48.0,25.4,30.32,ESE,119,0.0,0.0,41,0.00,,,0.00,Wunderground v.1.15,2013-11-11 04:24:00,
2013-11-10 21:34:00,47.8,25.2,30.32,ESE,118,0.0,0.0,41,0.00,,,0.00,Wunderground v.1.15,2013-11-11 04:34:00,
2013-11-10 21:44:00,47.2,25.3,30.32,ESE,119,0.0,0.0,42,0.00,,,0.00,Wunderground v.1.15,2013-11-11 04:44:00,
2013-11-10 21:53:00,46.1,25.9,30.32,ESE,118,0.0,0.0,45,0.00,,,0.00,Wunderground v.1.15,2013-11-11 04:53:00,
2013-11-10 21:59:00,45.6,25.5,30.32,ESE,118,0.0,0.0,45,0.00,,,0.00,Wunderground v.1.15,2013-11-11 04:59:00,
2013-11-10 22:03:00,45.5,24.8,30.32,ESE,118,0.0,0.0,44,0.00,,,0.00,Wunderground v.1.15,2013-11-11 05:03:00,
2013-11-10 22:09:00,46.1,24.8,30.32,ESE,119,0.0,0.0,43,0.00,,,0.00,Wunderground v.1.15,2013-11-11 05:09:00,
2013-11-10 22:19:00,46.3,26.1,30.32,ESE,120,0.0,0.0,45,0.00,,,0.00,Wunderground v.1.15,2013-11-11 05:19:00,
2013-11-10 22:29:00,45.3,25.7,30.32,ESE,120,0.0,0.0,46,0.00,,,0.00,Wunderground v.1.15,2013-11-11 05:29:00,
2013-11-10 22:38:00,44.6,26.1,30.32,ESE,120,0.0,0.0,48,0.00,,,0.00,Wunderground v.1.15,2013-11-11 05:38:00,
2013-11-10 22:49:00,44.1,26.1,30.32,ESE,120,0.0,0.0,49,0.00,,,0.00,Wunderground v.1.15,2013-11-11 05:49:00,
2013-11-10 22:59:00,43.7,26.3,30.32,ESE,120,0.0,0.0,50,0.00,,,0.00,Wunderground v.1.15,2013-11-11 05:59:00,
2013-11-10 23:09:00,43.8,25.4,30.32,ESE,120,0.0,0.0,48,0.00,,,0.00,Wunderground v.1.15,2013-11-11 06:09:00,
2013-11-10 23:18:00,43.7,25.3,30.31,ESE,120,0.0,0.0,48,0.00,,,0.00,Wunderground v.1.15,2013-11-11 06:18:00,
2013-11-10 23:24:00,43.4,25.5,30.32,ESE,120,0.0,0.0,49,0.00,,,0.00,Wunderground v.1.15,2013-11-11 06:24:00,
2013-11-10 23:34:00,43.1,25.7,30.32,ESE,120,0.0,0.0,50,0.00,,,0.00,Wunderground v.1.15,2013-11-11 06:34:00,
2013-11-10 23:44:00,43.1,25.7,30.32,ESE,120,0.0,0.0,50,0.00,,,0.00,Wunderground v.1.15,2013-11-11 06:44:00,
2013-11-10 23:53:00,42.6,26.2,30.31,ESE,121,0.0,0.0,52,0.00,,,0.00,Wunderground v.1.15,2013-11-11 06:53:00,
2013-11-10 23:59:00,42.5,25.6,30.31,ESE,120,0.0,0.0,51,0.00,,,0.00,Wunderground v.1.15,2013-11-11 06:59:00,